Location: Emory University Observatory
(33.7903°N, 84.3267°W)
Time: 07:14:17
(UTC-04:00)

Hubble Space Telescope - Pass Details

Date: 07 October 2017
Orbit: 537 x 541 km, 28.5° (Epoch: 17 October)

Event Time Altitude Azimuth Distance (km) Brightness Sun altitude
Exits shadow 05:36:41 33° 144° (SE) 919 2.1 -25.6°
Drops below altitude 10° 05:39:30 10° 110° (ESE) 1,788 4.2 -25.0°
Sets 05:41:51 0° 103° (ESE) 2,680 5.4 -24.5°
